Satellite: CP6
Catalog number: 35004
Epoch time:      10195.93217990
Element set:    0344
Inclination:      040.4614 deg
RA of node:       038.1521 deg
Eccentricity:    0.0021300
Arg of perigee:   240.6310 deg
Mean anomaly:     119.2376 deg
Mean motion:   15.46718961 rev/day
Decay rate:      7.694e-05 rev/day^2
Epoch rev:           06501
Checksum:              269

Satellite: AEROCUB3
Catalog number: 35005
Epoch time:      10196.85016627
Element set:     379
Inclination:      040.4671 deg
RA of node:       028.6698 deg
Eccentricity:    0.0019294
Arg of perigee:   268.1959 deg
Mean anomaly:     091.6647 deg
Mean motion:   15.52864817 rev/day
Decay rate:     2.5915e-04 rev/day^2
Epoch rev:            6520
Checksum:              335

Satellite: CASTOR
Catalog number: 35694
Epoch time:      10196.71559655
Element set:     559
Inclination:      051.6341 deg
RA of node:       046.7186 deg
Eccentricity:    0.0002283
Arg of perigee:   273.3938 deg
Mean anomaly:     086.7006 deg
Mean motion:   16.08560449 rev/day
Decay rate:    1.29543e-03 rev/day^2
Epoch rev:            5564
Checksum:              328

Satellite: METEOR-M
Catalog number: 35865
Epoch time:      10196.70515565
Element set:     474
Inclination:      098.7563 deg
RA of node:       250.2981 deg
Eccentricity:    0.0002014
Arg of perigee:   304.0539 deg
Mean anomaly:     056.0403 deg
Mean motion:   14.21830899 rev/day
Decay rate:       1.76e-06 rev/day^2
Epoch rev:            4277
Checksum:              296

Satellite: RS-38
Catalog number: 35869
Epoch time:      10196.74393000
Element set:     483
Inclination:      098.7549 deg
RA of node:       250.3710 deg
Eccentricity:    0.0003907
Arg of perigee:   289.3352 deg
Mean anomaly:     070.7376 deg
Mean motion:   14.21985067 rev/day
Decay rate:       1.77e-06 rev/day^2
Epoch rev:            4278
Checksum:              330

/EX


_______________________________________________
Via the Keps mailing list courtesy of AMSAT-NA
http://amsat.org/mailman/listinfo/keps

--- ViaMAIL!/WC v1.60d
 * Origin: Chowdanet (401-724-4410) telnet://chowdanet.com  (1:323/120)